Location: Berg
(48.4333°N, 13.9167°E)
Time: 12:15:22
(UTC+00:00)

ATLAS CENTAUR R/B - Pass Details

Date: 17 January 2021
Orbit: 471 x 674 km, 64.6° (Epoch: 28 February)

Event Time Altitude Azimuth Distance (km) Brightness Sun altitude
Rises 05:42:40 0° 170° (S) 2,537 5.1 -10.8°
Reaches altitude 10° 05:45:43 10° 142° (SE) 1,643 4.7 -10.4°
Maximum altitude 05:47:29 13° 113° (ESE) 1,449 5.0 -10.1°
Drops below altitude 10° 05:49:16 10° 83° (E) 1,638 4.8 -9.8°
Sets 05:52:17 0° 56° (NE) 2,523 5.2 -9.3°
